Location: Aldenham
(51.6667°N, 0.3500°W)
Time: 16:14:52
(UTC+00:00)

Vanguard 2 Rocket - Pass Details

Date: 24 February 2026
Orbit: 553 x 3286 km, 32.9° (Epoch: 11 March)

Event Time Altitude Azimuth Distance (km) Brightness Sun altitude
Rises 11:22:01 0° 234° (SW) 7,095 11.7 27.9°
Reaches altitude 10° 11:27:12 10° 227° (SW) 6,194 11.6 28.1°
Maximum altitude 11:44:15 38° 170° (S) 4,121 12.8 28.6°
Drops below altitude 10° 11:58:10 10° 110° (ESE) 5,100 11.1 28.9°
Sets 12:01:55 0° 103° (ESE) 5,773 11.2 28.9°
